Location: Bennemühlen
(52.5740°N, 9.7135°E)
Time: 12:51:12
(UTC+00:00)

A-11 Canister half - Pass Details

Date: 18 February 2026
Orbit: 1513 x 1686 km, 47.2° (Epoch: 17 March)

Event Time Altitude Azimuth Distance (km) Brightness Sun altitude
Rises 18:25:44 0° 188° (S) 4,928 11.7 -16.7°
Reaches altitude 10° 18:30:01 10° 173° (S) 3,943 11.0 -17.4°
Maximum altitude 18:36:41 20° 131° (SE) 3,191 10.2 -18.4°
Enters shadow 18:37:40 20° 123° (ESE) 3,207 10.1 -18.6°
Drops below altitude 10° 18:43:16 10° 89° (E) 3,909 - -19.4°
Sets 18:47:28 0° 74° (ENE) 4,875 - -20.0°
